TimeCST,TemperatureF,Dew PointF,Humidity,Sea Level PressureIn,VisibilityMPH,Wind Direction,Wind SpeedMPH,Gust SpeedMPH,PrecipitationIn,Events,Conditions,WindDirDegrees,DateUTC
12:53 AM,50.0,35.1,57,30.09,10.0,ENE,12.7,-,N/A,,Clear,60,2013-02-21 06:53:00
1:53 AM,46.9,35.1,63,30.08,10.0,NE,8.1,-,N/A,,Clear,50,2013-02-21 07:53:00
2:53 AM,46.9,35.1,63,30.06,10.0,NE,6.9,-,N/A,,Scattered Clouds,40,2013-02-21 08:53:00
3:17 AM,46.4,35.6,66,30.05,10.0,NNE,8.1,-,N/A,,Scattered Clouds,30,2013-02-21 09:17:00
3:53 AM,46.9,34.0,61,30.06,10.0,NNE,8.1,-,N/A,,Mostly Cloudy,30,2013-02-21 09:53:00
4:53 AM,46.0,33.1,61,30.06,10.0,NNE,5.8,-,N/A,,Clear,20,2013-02-21 10:53:00
5:53 AM,48.0,34.0,58,30.07,10.0,NE,6.9,-,N/A,,Overcast,40,2013-02-21 11:53:00
6:53 AM,48.9,35.1,59,30.08,10.0,NE,9.2,-,N/A,,Mostly Cloudy,50,2013-02-21 12:53:00
7:53 AM,51.1,35.1,54,30.09,10.0,ENE,9.2,-,N/A,,Overcast,70,2013-02-21 13:53:00
8:53 AM,52.0,36.0,54,30.10,10.0,NE,6.9,-,N/A,,Overcast,40,2013-02-21 14:53:00
9:53 AM,54.0,39.9,59,30.08,10.0,ENE,6.9,-,N/A,,Overcast,70,2013-02-21 15:53:00
10:53 AM,57.0,45.0,64,30.05,10.0,ESE,6.9,-,N/A,,Overcast,120,2013-02-21 16:53:00
11:53 AM,60.1,48.9,67,30.04,10.0,SE,6.9,-,N/A,,Mostly Cloudy,130,2013-02-21 17:53:00
12:53 PM,63.0,51.1,65,30.00,10.0,SE,6.9,-,N/A,,Mostly Cloudy,130,2013-02-21 18:53:00
1:43 PM,60.8,53.6,77,29.97,10.0,SE,6.9,-,N/A,,Overcast,140,2013-02-21 19:43:00
1:53 PM,60.1,54.0,80,29.96,10.0,SE,8.1,-,N/A,,Overcast,130,2013-02-21 19:53:00
2:53 PM,63.0,57.0,81,29.92,10.0,SE,13.8,-,N/A,,Mostly Cloudy,130,2013-02-21 20:53:00
3:53 PM,63.0,59.0,87,29.92,10.0,SSE,8.1,-,N/A,,Mostly Cloudy,160,2013-02-21 21:53:00
4:53 PM,63.0,57.9,84,29.90,10.0,SE,12.7,-,N/A,,Mostly Cloudy,140,2013-02-21 22:53:00
5:53 PM,62.1,57.9,86,29.91,10.0,SSE,11.5,-,N/A,,Overcast,150,2013-02-21 23:53:00
6:53 PM,62.1,59.0,90,29.92,10.0,SSE,12.7,-,N/A,,Overcast,150,2013-02-22 00:53:00
7:53 PM,63.0,60.1,90,29.93,10.0,SSE,8.1,-,N/A,,Overcast,150,2013-02-22 01:53:00
8:53 PM,63.0,61.0,93,29.93,10.0,SSE,10.4,17.3,N/A,,Overcast,150,2013-02-22 02:53:00
10:20 PM,62.6,62.6,100,29.93,9.0,South,9.2,18.4,N/A,,Overcast,190,2013-02-22 04:20:00
10:37 PM,64.4,62.6,94,29.92,8.0,SSE,13.8,18.4,N/A,,Overcast,150,2013-02-22 04:37:00
10:53 PM,64.0,62.1,93,29.93,8.0,SSE,12.7,21.9,N/A,,Overcast,150,2013-02-22 04:53:00
11:21 PM,64.4,62.6,94,29.93,7.0,SSE,10.4,-,N/A,,Overcast,160,2013-02-22 05:21:00
11:34 PM,64.4,62.6,94,29.93,7.0,South,9.2,17.3,N/A,,Overcast,170,2013-02-22 05:34:00
11:53 PM,63.0,62.1,97,29.92,5.0,South,10.4,16.1,N/A,,Overcast,170,2013-02-22 05:53:00